Penn Yan, NY

4:44 PM EDT on September 29, 2016 (GMT -0400)
Penn Yan

Weather History for KPEO - March, 2013

Change the Weather History Date:

Tuesday, March 12, 2013

  Actual Average (KITH) Record (KITH)
Temperature  
Mean Temperature 45 °F -  
Max Temperature 54 °F 38 °F 70 °F (1977)
Min Temperature 35 °F 21 °F -10 °F (1960)
Degree Days  
Heating Degree Days 20    
Moisture  
Dew Point 37 °F    
Average Humidity 81    
Maximum Humidity 93    
Minimum Humidity 66    
Precipitation  
Precipitation 0.24 in - - ()
Sea Level Pressure  
Sea Level Pressure 29.80 in    
Wind  
Wind Speed 9 mph (West)    
Max Wind Speed 21 mph    
Max Gust Speed 33 mph    
Visibility 8 miles    
Events Rain    
Averages and records for this station are not official NWS values.
T = Trace of Precipitation, MM = Missing Value Source: NWS Daily Summary

Daily Weather History Graph

Daily Weather History Graph

Search for Another Location

Airport or City:

Trip Planner

Search our weather history database for the weather conditions in past years. The results will help you decide how hot, cold, wet, or windy it might be!

Date:

Astronomy

Mar. 12, 2013 Rise Set
Actual Time 7:24 AM EDT 7:11 PM EDT
Civil Twilight 6:56 AM EDT 7:39 PM EDT
Nautical Twilight 6:24 AM EDT 8:12 PM EDT
Astronomical Twilight 5:51 AM EDT 8:45 PM EDT
Moon 7:28 AM EDT (3/12) 8:27 PM EDT (3/12)
Length of Visible Light 12h 42m
Length of Day
11h 46m
New Moon, 1% of the Moon is Illuminated
Mar 12
New Moon
Mar 19
First Quarter
Mar 27
Full
Apr 3
Last Quarter
Apr 10
New

Hourly Weather History & Observations

Time (EDT) Temp. Windchill Dew Point Humidity Pressure Visibility Wind Dir Wind Speed Gust Speed Precip Events Conditions
12:53 AM 53.1 °F - 44.1 °F 71% 29.73 in 10.0 mi South 20.7 mph 33.4 mph N/A   Overcast
1:53 AM 54.0 °F - 45.0 °F 72% 29.72 in 10.0 mi South 18.4 mph 27.6 mph N/A   Overcast
2:53 AM 54.0 °F - 45.0 °F 72% 29.73 in 10.0 mi South 12.7 mph - N/A   Overcast
3:53 AM 52.0 °F - 46.0 °F 80% 29.73 in 9.0 mi SSW 10.4 mph - 0.00 in Rain Light Rain
4:53 AM 50.0 °F - 46.0 °F 86% 29.73 in 10.0 mi NW 5.8 mph - 0.01 in   Overcast
5:18 AM 50.0 °F - 46.4 °F 87% 29.73 in 3.0 mi NW 4.6 mph - 0.03 in Rain Rain
5:29 AM 48.2 °F - 46.4 °F 93% 29.73 in 2.5 mi Variable 3.5 mph - 0.07 in Rain Rain
5:38 AM 48.2 °F - 44.6 °F 87% 29.73 in 5.0 mi SSW 3.5 mph - 0.08 in Rain Light Rain
5:53 AM 48.0 °F - 46.0 °F 93% 29.75 in 4.0 mi South 4.6 mph - 0.09 in Rain Light Rain
6:21 AM 46.4 °F 44.3 °F 44.6 °F 93% 29.75 in 2.5 mi SSW 4.6 mph - 0.02 in Rain Light Rain
6:37 AM 46.4 °F 42.4 °F 44.6 °F 93% 29.77 in 3.0 mi WNW 8.1 mph - 0.04 in Rain Light Rain
6:50 AM 44.6 °F 42.2 °F 41.0 °F 87% 29.77 in 4.0 mi NNW 4.6 mph - 0.06 in Rain Light Rain
6:53 AM 44.1 °F 41.5 °F 41.0 °F 89% 29.78 in 5.0 mi NW 4.6 mph - 0.06 in Rain Light Rain
7:20 AM 44.6 °F - 41.0 °F 87% 29.76 in 7.0 mi Calm Calm - 0.01 in Rain Light Rain
7:48 AM 42.8 °F - 39.2 °F 87% 29.78 in 6.0 mi Calm Calm - 0.02 in Rain Light Rain
7:53 AM 43.0 °F - 41.0 °F 93% 29.79 in 6.0 mi Calm Calm - 0.02 in Rain Light Rain
8:21 AM 42.8 °F 38.0 °F 39.2 °F 87% 29.79 in 3.0 mi NNW 8.1 mph - 0.02 in Rain Light Rain
8:53 AM 39.9 °F 37.8 °F 37.0 °F 89% 29.83 in 2.5 mi Variable 3.5 mph - 0.05 in Rain Rain
9:16 AM 39.2 °F 37.0 °F 37.4 °F 93% 29.80 in 6.0 mi Variable 3.5 mph - 0.00 in Rain Light Rain
9:25 AM 39.2 °F 35.9 °F 37.4 °F 93% 29.80 in 7.0 mi WNW 4.6 mph - 0.01 in Rain Light Rain
9:53 AM 39.9 °F 36.7 °F 36.0 °F 86% 29.83 in 10.0 mi Variable 4.6 mph - 0.01 in   Overcast
10:53 AM 39.0 °F 35.7 °F 34.0 °F 82% 29.84 in 10.0 mi West 4.6 mph - N/A   Overcast
11:17 AM 39.2 °F 35.0 °F 33.8 °F 81% 29.83 in 10.0 mi West 5.8 mph - N/A   Overcast
11:53 AM 39.9 °F 32.9 °F 33.1 °F 77% 29.83 in 10.0 mi West 11.5 mph 16.1 mph N/A   Overcast
12:53 PM 39.9 °F 36.7 °F 34.0 °F 79% 29.83 in 9.0 mi WSW 4.6 mph - 0.00 in Rain Light Rain
1:09 PM 39.2 °F 34.2 °F 33.8 °F 81% 29.82 in 10.0 mi SW 6.9 mph - 0.00 in Rain Light Rain
1:53 PM 42.1 °F 40.2 °F 33.1 °F 70% 29.81 in 10.0 mi West 3.5 mph - 0.00 in   Overcast
2:02 PM 42.8 °F 39.3 °F 33.8 °F 70% 29.80 in 10.0 mi West 5.8 mph - N/A   Overcast
2:53 PM 43.0 °F 39.5 °F 33.1 °F 68% 29.80 in 10.0 mi NW 5.8 mph - N/A   Overcast
3:41 PM 42.8 °F 37.0 °F 32.0 °F 66% 29.79 in 10.0 mi WNW 10.4 mph - N/A   Overcast
3:53 PM 41.0 °F 34.3 °F 32.0 °F 70% 29.81 in 10.0 mi NW 11.5 mph - N/A   Overcast
4:30 PM 39.2 °F 35.0 °F 32.0 °F 75% 29.81 in 10.0 mi WNW 5.8 mph - N/A   Overcast
4:53 PM 39.9 °F 35.8 °F 32.0 °F 73% 29.83 in 10.0 mi WNW 5.8 mph - N/A   Overcast
5:53 PM 39.0 °F 32.3 °F 30.9 °F 73% 29.84 in 10.0 mi WNW 10.4 mph 16.1 mph N/A   Overcast
6:53 PM 37.0 °F 31.0 °F 30.0 °F 76% 29.87 in 10.0 mi WNW 8.1 mph 16.1 mph N/A   Overcast
7:53 PM 37.0 °F 31.0 °F 28.9 °F 73% 29.90 in 10.0 mi West 8.1 mph - N/A   Overcast
8:53 PM 36.0 °F 28.5 °F 28.0 °F 73% 29.91 in 10.0 mi West 10.4 mph 17.3 mph N/A   Overcast
9:53 PM 36.0 °F 29.0 °F 27.0 °F 70% 29.92 in 10.0 mi West 9.2 mph - N/A   Overcast
10:53 PM 36.0 °F 29.6 °F 28.0 °F 73% 29.92 in 10.0 mi West 8.1 mph - N/A   Overcast
11:53 PM 35.1 °F 28.6 °F 28.0 °F 76% 29.91 in 10.0 mi West 8.1 mph - N/A   Overcast